Date String (YYYY-MM-DD hh:mm:ss) UTC,Instrument flags,Ambient pressure (hPa),Sample flow (lpm),Bypass flow (lpm),Sample temperature (°C),Ambient temperature (°C),ASC tube jacket temperature (°C),LED temperature (°C),Box temperature (°C),Sample RH (%),Span deviation,Mass concentration (μg/m³),Mass concentration (μg/m³),Mass concentration (μg/m³)
DateTimeUTC,F1_M11,P_M11,Q1_M11,Q2_M11,T1_M11,T2_M11,T3_M11,T4_M11,T5_M11,U1_M11,ZSPAN_M11,X0_M11,X2_M11,X1_M11
2023-01-21 23:00:00,,0825.4,5.00,0.00,21.8,19.8,00.0,30.7,23.4,14.9,0000.0,0008.74,0005.68,0005.35
2023-01-21 23:01:00,,0825.4,5.01,0.00,21.7,19.7,00.0,30.7,23.3,14.9,0000.0,0008.78,0005.66,0005.33
2023-01-21 23:02:00,,0825.4,5.00,0.00,21.7,19.7,00.0,30.7,23.3,15.0,0000.0,0008.72,0005.62,0005.30
2023-01-21 23:03:00,,0825.4,5.00,0.00,21.7,19.7,00.0,30.6,23.2,15.0,0000.0,0008.62,0005.59,0005.29
2023-01-21 23:04:00,,0825.4,4.99,0.00,21.6,19.6,00.0,30.6,23.2,15.0,0000.0,0008.47,0005.55,0005.26
2023-01-21 23:05:00,,0825.4,5.01,0.00,21.6,19.8,00.0,30.6,23.2,15.0,0000.0,0008.39,0005.52,0005.23
2023-01-21 23:06:00,,0825.4,4.99,0.00,21.7,21.0,00.0,30.5,23.5,15.0,0000.0,0008.31,0005.50,0005.21
2023-01-21 23:07:00,,0825.4,5.00,0.00,21.8,22.1,00.0,30.5,23.8,14.9,0000.0,0008.20,0005.44,0005.19
2023-01-21 23:08:00,,0825.4,5.00,0.00,21.9,22.2,00.0,30.6,23.9,14.8,0000.0,0008.22,0005.43,0005.16
2023-01-21 23:09:00,,0825.3,4.98,0.00,21.9,21.6,00.0,30.6,23.8,14.7,0000.0,0008.09,0005.39,0005.13
2023-01-21 23:10:00,,0825.3,5.01,0.00,21.9,21.0,00.0,30.6,23.6,14.7,0000.0,0007.79,0005.41,0005.12
2023-01-21 23:11:00,,0825.3,4.99,0.00,21.8,20.4,00.0,30.6,23.5,14.8,0000.0,0007.86,0005.40,0005.10
2023-01-21 23:12:00,,0825.3,5.00,0.00,21.8,20.0,00.0,30.6,23.3,14.8,0000.0,0007.92,0005.39,0005.09
2023-01-21 23:13:00,,0825.3,4.99,0.00,21.7,19.6,00.0,30.6,23.2,14.9,0000.0,0007.95,0005.40,0005.09
2023-01-21 23:14:00,,0825.3,5.00,0.00,21.6,19.4,00.0,30.6,23.1,14.9,0000.0,0007.95,0005.40,0005.07
2023-01-21 23:15:00,,0825.4,5.00,0.00,21.6,19.2,00.0,30.5,23.0,14.9,0000.0,0008.01,0005.40,0005.06
2023-01-21 23:16:00,,0825.3,4.99,0.00,21.5,19.1,00.0,30.5,22.9,15.0,0000.0,0007.98,0005.37,0005.05
2023-01-21 23:17:00,,0825.4,5.00,0.00,21.4,19.0,00.0,30.5,22.9,15.0,0000.0,0007.99,0005.34,0005.03
2023-01-21 23:18:00,,0825.3,5.01,0.00,21.4,18.9,00.0,30.4,22.8,15.1,0000.0,0008.06,0005.33,0005.02
2023-01-21 23:19:00,,0825.3,4.99,0.00,21.3,18.8,00.0,30.4,22.7,15.1,0000.0,0008.45,0005.32,0005.01
2023-01-21 23:20:00,,0825.3,5.00,0.00,21.2,18.8,00.0,30.3,22.7,15.2,0000.0,0008.43,0005.32,0005.00
2023-01-21 23:21:00,,0825.4,5.00,0.00,21.3,19.9,00.0,30.3,22.9,15.2,0000.0,0008.50,0005.27,0004.98
2023-01-21 23:22:00,,0825.4,4.99,0.00,21.4,21.3,00.0,30.3,23.2,15.1,0000.0,0008.47,0005.25,0004.97
2023-01-21 23:23:00,,0825.3,5.00,0.00,21.5,22.0,00.0,30.3,23.5,15.0,0000.0,0008.48,0005.25,0004.95
2023-01-21 23:24:00,,0825.4,5.00,0.00,21.6,21.5,00.0,30.3,23.4,14.9,0000.0,0008.73,0005.23,0004.93
2023-01-21 23:25:00,,0825.3,5.00,0.00,21.5,20.8,00.0,30.4,23.3,14.9,0000.0,0009.10,0005.23,0004.93
2023-01-21 23:26:00,,0825.4,4.99,0.00,21.5,20.2,00.0,30.4,23.1,14.9,0000.0,0009.80,0005.22,0004.92
2023-01-21 23:27:00,,0825.4,4.98,0.00,21.4,19.8,00.0,30.4,23.0,15.0,0000.0,0009.93,0005.22,0004.93
2023-01-21 23:28:00,,0825.4,4.98,0.00,21.4,19.5,00.0,30.3,22.9,15.0,0000.0,0009.91,0005.23,0004.94
2023-01-21 23:29:00,,0825.4,5.01,0.00,21.3,19.3,00.0,30.3,22.8,15.1,0000.0,0009.91,0005.25,0004.95
2023-01-21 23:30:00,,0825.4,5.00,0.00,21.3,19.1,00.0,30.3,22.8,15.2,0000.0,0009.62,0005.30,0004.96
2023-01-21 23:31:00,,0825.4,4.99,0.00,21.3,19.0,00.0,30.3,22.7,15.3,0000.0,0009.60,0005.30,0004.97
2023-01-21 23:32:00,,0825.4,5.06,0.00,21.2,19.0,00.0,30.2,22.7,15.3,0000.0,0009.50,0005.30,0004.98
2023-01-21 23:33:00,,0825.4,5.01,0.00,21.2,19.0,00.0,30.2,22.6,15.4,0000.0,0009.30,0005.30,0004.98
2023-01-21 23:34:00,,0825.4,5.00,0.00,21.1,18.9,00.0,30.2,22.6,15.5,0000.0,0009.21,0005.27,0004.98
2023-01-21 23:35:00,,0825.4,4.99,0.00,21.1,18.8,00.0,30.1,22.5,15.6,0000.0,0009.17,0005.27,0004.98
2023-01-21 23:36:00,,0825.4,5.01,0.00,21.1,19.3,00.0,30.1,22.6,15.6,0000.0,0008.69,0005.29,0004.96
2023-01-21 23:37:00,,0825.4,4.99,0.00,21.2,20.7,00.0,30.1,22.9,15.5,0000.0,0008.14,0005.30,0004.96
2023-01-21 23:38:00,,0825.4,5.00,0.00,21.3,21.8,00.0,30.1,23.2,15.4,0000.0,0007.74,0005.27,0004.95
2023-01-21 23:39:00,,0825.4,4.98,0.00,21.4,21.8,00.0,30.1,23.3,15.3,0000.0,0007.66,0005.23,0004.93
2023-01-21 23:40:00,,0825.4,5.01,0.00,21.4,21.1,00.0,30.2,23.2,15.2,0000.0,0007.62,0005.20,0004.91
2023-01-21 23:41:00,,0825.4,4.99,0.00,21.4,20.5,00.0,30.2,23.1,15.1,0000.0,0007.61,0005.19,0004.90
2023-01-21 23:42:00,,0825.4,5.00,0.00,21.4,20.0,00.0,30.2,23.0,15.1,0000.0,0007.51,0005.14,0004.89
2023-01-21 23:43:00,,0825.4,5.01,0.00,21.3,19.7,00.0,30.2,22.8,15.0,0000.0,0007.50,0005.14,0004.88
2023-01-21 23:44:00,,0825.4,5.00,0.00,21.3,19.4,00.0,30.2,22.7,14.9,0000.0,0007.54,0005.15,0004.87
2023-01-21 23:45:00,,0825.4,5.00,0.00,21.2,19.2,00.0,30.1,22.7,14.9,0000.0,0007.54,0005.15,0004.87
2023-01-21 23:46:00,,0825.4,4.99,0.00,21.2,19.0,00.0,30.1,22.6,14.9,0000.0,0007.47,0005.15,0004.87
2023-01-21 23:47:00,,0825.4,4.99,0.00,21.1,18.8,00.0,30.1,22.5,14.9,0000.0,0007.36,0005.11,0004.88
2023-01-21 23:48:00,,0825.3,5.00,0.00,21.0,18.7,00.0,30.1,22.5,14.9,0000.0,0007.29,0005.09,0004.88
2023-01-21 23:49:00,,0825.4,5.01,0.00,21.0,18.6,00.0,30.0,22.4,14.9,0000.0,0007.45,0005.09,0004.88
2023-01-21 23:50:00,,0825.4,5.00,0.00,20.9,18.4,00.0,30.0,22.3,15.0,0000.0,0007.56,0005.12,0004.90
2023-01-21 23:51:00,,0825.4,5.02,0.00,20.9,19.0,00.0,29.9,22.4,15.0,0000.0,0007.61,0005.14,0004.91
2023-01-21 23:52:00,,0825.4,4.99,0.00,21.0,20.5,00.0,29.9,22.7,14.9,0000.0,0007.56,0005.14,0004.92
2023-01-21 23:53:00,,0825.4,5.00,0.00,21.1,21.6,00.0,29.9,23.1,14.8,0000.0,0007.89,0005.20,0004.94
2023-01-21 23:54:00,,0825.4,5.00,0.00,21.3,22.1,00.0,30.0,23.3,14.7,0000.0,0008.27,0005.24,0004.95
2023-01-21 23:55:00,,0825.4,4.98,0.00,21.3,21.4,00.0,30.0,23.2,14.7,0000.0,0008.30,0005.26,0004.98
2023-01-21 23:56:00,,0825.4,4.98,0.00,21.3,20.7,00.0,30.0,23.0,14.7,0000.0,0008.33,0005.28,0005.00
2023-01-21 23:57:00,,0825.4,5.03,0.00,21.3,20.2,00.0,30.1,22.9,14.7,0000.0,0008.36,0005.31,0005.02
2023-01-21 23:58:00,,0825.4,4.99,0.00,21.2,19.7,00.0,30.0,22.8,14.7,0000.0,0008.42,0005.35,0005.05
2023-01-21 23:59:00,,0825.5,4.99,0.00,21.2,19.4,00.0,30.0,22.7,14.8,0000.0,0008.50,0005.39,0005.08
